This demonstration page uses our WeatherBlox Daily Observations layout. Learn more.

Left ArrowRight Arrow

34.74481, -87.66753

Hourly Observations for April 12, 2017

Temp ( °F °C ) Dew Point ( °F °C ) Humidity (%) Winds ( mph kmh ) Pressure ( in mb ) Visibility ( mi km ) Precip ( " mm )
12:53 am 00:53 Clear 65 18.3 57 13.9 76 76 E 8 13 30.23 1024 10 16 0.00 0.00
1:53 am 01:53 Clear 64 17.8 55 12.8 73 73 SE 8 13 30.19 1022 10 16 0.00 0.00
2:53 am 02:53 Clear 64 17.8 54 12.2 70 70 N 6 9 30.22 1023 10 16 0.00 0.00
3:53 am 03:53 Clear 62 16.7 56 13.3 80 80 Calm 30.22 1023 10 16 0.00 0.00
4:53 am 04:53 Clear 63 17.2 55 12.8 76 76 Calm 30.23 1024 10 16 0.00 0.00
5:53 am 05:53 Clear 61 16.1 55 12.8 81 81 NNE 5 7 30.25 1024 10 16 0.00 0.00
6:53 am 06:53 Sunny 60 15.6 55 12.8 84 84 VRB 5 7 30.27 1025 10 16 0.00 0.00
7:53 am 07:53 Partly Cloudy 63 17.2 56 13.3 78 78 Calm 30.29 1026 10 16 0.00 0.00
8:53 am 08:53 Sunny 65 18.3 55 12.8 70 70 E 8 13 30.29 1026 10 16 0.00 0.00
9:53 am 09:53 Sunny 69 20.6 54 12.2 59 59 undefined N/A 30.29 1026 10 16 0.00 0.00
10:53 am 10:53 Sunny 72 22.2 54 12.2 53 53 ESE 7 11 30.30 1026 10 16 0.00 0.00
11:53 am 11:53 Sunny 75 23.9 53 11.7 46 46 E 6 9 30.30 1026 10 16 0.00 0.00
12:53 pm 12:53 Sunny 77 25 53 11.7 43 43 VRB 5 7 30.28 1025 10 16 0.00 0.00
1:53 pm 13:53 Sunny 79 26.1 53 11.7 41 41 Calm 30.26 1025 10 16 0.00 0.00
2:53 pm 14:53 Mostly Sunny 80 26.7 53 11.7 39 39 NNE 6 9 30.25 1024 10 16 0.00 0.00
3:53 pm 15:53 Sunny 81 27.2 54 12.2 39 39 VRB 6 9 30.23 1024 10 16 0.00 0.00
4:53 pm 16:53 Sunny 81 27.2 52 11.1 37 37 NE 5 7 30.22 1023 10 16 0.00 0.00
5:53 pm 17:53 Sunny 79 26.1 52 11.1 39 39 NE 7 11 30.22 1023 10 16 0.00 0.00
6:53 pm 18:53 Sunny 74 23.3 54 12.2 50 50 E 3 6 30.22 1023 10 16 0.00 0.00
7:53 pm 19:53 Clear 71 21.7 54 12.2 55 55 ENE 5 7 30.23 1024 10 16 0.00 0.00
8:53 pm 20:53 Clear 69 20.6 53 11.7 57 57 ENE 3 6 30.24 1024 10 16 0.00 0.00
9:53 pm 21:53 Clear 67 19.4 51 10.6 57 57 NE 5 7 30.26 1025 10 16 0.00 0.00
10:53 pm 22:53 Clear 62 16.7 50 10 65 65 Calm 30.25 1024 10 16 0.00 0.00
11:53 pm 23:53 Clear 63 17.2 48 8.9 58 58 ENE 5 7 30.24 1024 10 16 0.00 0.00

Powered by AerisWeather